This demonstration page uses our WeatherBlox Daily Observations layout. Learn more.

Left ArrowRight Arrow

38.89511, -77.03637

Hourly Observations for October 2, 2022

Temp ( °F °C ) Dew Point ( °F °C ) Humidity (%) Winds ( mph kmh ) Pressure ( in mb ) Visibility ( mi km ) Precip ( " mm )
12:38 am 00:38 Cloudy with Mist and Fog 62 16.7 61 16.1 96 96 ENE 5 7 29.89 1012 3 5 0.01 0.25
12:52 am 00:52 Cloudy with Mist and Fog 62 16.7 61 16.1 96 96 E 5 7 29.88 1012 3 5 0.01 0.25
1:01 am 01:01 Cloudy with Light Rain 62 16.7 61 16.1 96 96 ENE 6 9 29.89 1012 3 4 0.01 0.25
1:10 am 01:10 Cloudy with Mist and Fog 62 16.7 61 16.1 96 96 NE 5 7 29.88 1012 3 5 0.01 0.25
1:52 am 01:52 Cloudy 62 16.7 60 15.6 93 93 NNE 5 7 29.88 1012 7 11 0.01 0.25
2:52 am 02:52 Cloudy with Mist and Fog 62 16.7 60 15.6 93 93 NNE 9 15 29.88 1012 4 6 0.01 0.25
3:06 am 03:06 Cloudy with Mist and Fog 62 16.7 60 15.6 93 93 NNE 10 17 29.88 1012 3 4 0.00 0.00
3:28 am 03:28 Cloudy with Mist and Fog 62 16.7 60 15.6 93 93 NNE 9 15 29.88 1012 4 6 0.00 0.00
3:52 am 03:52 Cloudy with Mist and Fog 61 16.1 60 15.6 97 97 NNE 13 20 29.87 1012 4 6 0.01 0.25
4:17 am 04:17 Cloudy with Mist and Fog 61 16.1 60 15.6 97 97 NNE 15 24 29.87 1012 3 5 0.00 0.00
4:52 am 04:52 Cloudy 61 16.1 59 15 93 93 NE 15 24 29.87 1011 7 11 0.00 0.00
5:12 am 05:12 Cloudy with Light Rain 61 16.1 59 15 93 93 NNE 14 22 29.88 1012 5 8 0.01 0.13
5:52 am 05:52 Cloudy 61 16.1 59 15 93 93 NE 15 24 29.88 1012 7 11 0.01 0.25
6:48 am 06:48 Cloudy with Light Rain 61 16 59 15 94 94 NE 13 20 29.90 1013 3 5 0.02 0.51
6:52 am 06:52 Cloudy with Light Rain 60 15.6 59 15 96 96 NE 13 20 29.90 1013 3 5 0.02 0.51
7:05 am 07:05 Cloudy with Heavy Rain 60 15.6 59 15 96 96 NNE 13 20 29.91 1013 2 3 0.02 0.51
7:19 am 07:19 Cloudy with Light Rain 60 15.6 58 14.4 93 93 NNE 13 20 29.91 1013 6 10 0.05 1.27
7:28 am 07:28 Cloudy with Light Rain 60 15.6 58 14.4 93 93 NNE 13 20 29.92 1013 3 5 0.06 1.52
7:36 am 07:36 Cloudy with Light Rain 60 15.6 58 14.4 93 93 NNE 13 20 29.92 1013 3 4 0.06 1.52
7:50 am 07:50 Cloudy with Light Rain 61 16 57 14 88 88 NNE 13 20 29.93 1014 3 5 0.07 1.78
7:52 am 07:52 Cloudy with Light Rain 60 15.6 58 14.4 93 93 NNE 13 20 29.92 1013 3 5 0.07 1.78
8:45 am 08:45 Cloudy with Light Rain 59 15 57 13.9 93 93 NNE 14 22 29.95 1014 4 6 0.01 0.25
8:52 am 08:52 Cloudy with Light Rain 59 15 57 13.9 93 93 NNE 13 20 29.95 1014 2 3 0.01 0.25
8:59 am 08:59 Cloudy with Light Rain 59 15 57 13.9 93 93 NNE 15 24 29.95 1014 3 5 0.01 0.25
9:22 am 09:22 Cloudy with Light Rain 59 15 57 13.9 93 93 NNE 15 24 29.96 1015 5 8 0.01 0.25
9:36 am 09:36 Cloudy with Light Rain 59 15 57 13.9 93 93 NNE 15 24 29.97 1015 3 4 0.01 0.25
9:44 am 09:44 Cloudy with Light Rain 59 15 57 13.9 93 93 NNE 15 24 29.97 1015 3 5 0.01 0.25
9:52 am 09:52 Cloudy with Light Rain 59 15 57 13.9 93 93 NNE 15 24 29.97 1015 3 5 0.01 0.25
9:56 am 09:56 Cloudy with Light Rain 59 15 57 13.9 93 93 NNE 15 24 29.98 1015 3 4 0.01 0.13
10:10 am 10:10 Cloudy with Light Rain 59 15 57 13.9 93 93 NNE 16 26 29.98 1015 3 5 0.01 0.13
10:42 am 10:42 Cloudy with Light Rain 59 15 56 13.3 90 90 NNE 16 26 30.00 1016 3 4 0.01 0.13
10:52 am 10:52 Cloudy with Light Rain 58 14.4 55 12.8 90 90 NNE 16 26 30.00 1016 3 5 0.01 0.13
10:57 am 10:57 Cloudy with Light Rain 58 14.4 55 12.8 90 90 NNE 16 26 30.00 1016 4 6 0.01 0.13
11:26 am 11:26 Cloudy with Light Rain 58 14.4 55 12.8 90 90 N 16 26 30.01 1016 7 11 0.01 0.25
11:38 am 11:38 Cloudy with Rain 58 14.4 55 12.8 90 90 NNE 15 24 30.01 1016 2 3 0.01 0.25
11:52 am 11:52 Cloudy with Rain 57 13.9 55 12.8 93 93 NNE 15 24 30.01 1016 1 2 0.04 1.02
12:07 pm 12:07 Cloudy with Light Rain 57 13.9 55 12.8 93 93 NNE 14 22 30.02 1017 3 5 0.02 0.51
12:21 pm 12:21 Cloudy with Light Rain 57 13.9 54 12.2 89 89 NNE 17 28 30.02 1017 2 3 0.03 0.76
12:25 pm 12:25 Cloudy with Light Rain 57 13.9 54 12.2 89 89 NNE 13 20 30.02 1017 2 3 0.03 0.76
12:48 pm 12:48 Cloudy with Light Rain 57 14 54 12 88 88 NNE 15 24 30.02 1017 8 13 0.05 1.27
12:52 pm 12:52 Cloudy with Light Rain 57 13.9 54 12.2 89 89 N 14 22 30.02 1017 7 11 0.05 1.27
1:34 pm 13:34 Cloudy 57 13.9 54 12.2 89 89 NNE 14 22 30.02 1017 10 16 0.01 0.25
1:52 pm 13:52 Cloudy 58 14.4 53 11.7 84 84 NNE 14 22 30.02 1017 10 16 0.01 0.25
2:42 pm 14:42 Cloudy with Light Rain 57 13.9 55 12.8 93 93 NNE 15 24 30.02 1017 2 3 0.01 0.13
2:52 pm 14:52 Cloudy with Light Rain 58 14.4 55 12.8 90 90 NNE 15 24 30.02 1017 2 3 0.02 0.51
3:23 pm 15:23 Cloudy with Light Rain 57 13.9 55 12.8 93 93 NNE 16 26 30.03 1017 2 3 0.03 0.76
3:26 pm 15:26 Cloudy with Light Rain 58 14.4 55 12.8 90 90 NNE 14 22 30.03 1017 2 3 0.04 1.02
3:33 pm 15:33 Cloudy with Mist and Fog 58 14.4 55 12.8 90 90 NNE 17 28 30.03 1017 3 4 0.04 1.02
3:52 pm 15:52 Cloudy with Light Rain 57 13.9 55 12.8 93 93 NNE 16 26 30.04 1017 2 3 0.05 1.27
3:59 pm 15:59 Cloudy with Light Rain 57 13.9 55 12.8 93 93 NNE 18 30 30.04 1017 2 3 0.01 0.25
4:03 pm 16:03 Cloudy with Light Rain 58 14.4 55 12.8 90 90 NNE 18 30 30.04 1017 2 3 0.01 0.25
4:05 pm 16:05 Cloudy with Rain 58 14.4 55 12.8 90 90 NNE 17 28 30.04 1017 2 3 0.03 0.76
4:22 pm 16:22 Cloudy with Light Rain 58 14.4 55 12.8 90 90 NNE 18 30 30.04 1017 2 3 0.05 1.27
4:55 pm 16:55 Cloudy with Rain 57 13.9 55 12.8 93 93 NNE 20 31 30.05 1018 2 3 0.01 0.25
5:04 pm 17:04 Cloudy with Light Rain 57 13.9 54 12.2 89 89 NNE 18 30 30.06 1018 2 3 0.02 0.51
5:08 pm 17:08 Cloudy with Light Rain 57 13.9 55 12.8 93 93 NNE 17 28 30.06 1018 2 3 0.03 0.76
5:24 pm 17:24 Cloudy with Light Rain 57 13.9 55 12.8 93 93 NNE 15 24 30.07 1018 3 5 0.04 1.02
5:32 pm 17:32 Cloudy with Light Rain 57 13.9 55 12.8 93 93 NNE 16 26 30.07 1018 3 4 0.05 1.27
5:52 pm 17:52 Cloudy with Light Rain 57 13.9 54 12.2 89 89 NNE 17 28 30.08 1019 2 3 0.06 1.52
6:02 pm 18:02 Cloudy with Light Rain 57 13.9 54 12.2 89 89 NNE 17 28 30.09 1019 3 4 0.01 0.25
6:07 pm 18:07 Cloudy with Light Rain 57 13.9 54 12.2 89 89 NNE 15 24 30.09 1019 3 5 0.01 0.25
6:28 pm 18:28 Cloudy with Light Rain 56 13.3 53 11.7 90 90 N 21 33 30.10 1019 8 13 0.02 0.51
6:52 pm 18:52 Cloudy with Light Rain 57 13.9 52 11.1 83 83 NNE 17 28 30.10 1019 10 16 0.03 0.76
7:52 pm 19:52 Cloudy 56 13.3 52 11.1 87 87 N 17 28 30.12 1020 10 16 0.01 0.13
8:52 pm 20:52 Cloudy with Light Rain 55 12.8 51 10.6 86 86 NNE 18 30 30.13 1020 10 16 0.01 0.13
9:52 pm 21:52 Cloudy 55 12.8 49 9.4 80 80 N 21 33 30.15 1021 10 16 0.01 0.13
10:52 pm 22:52 Cloudy with Light Rain 54 12.2 50 10 86 86 NNE 20 31 30.15 1021 10 16 0.01 0.13
11:52 pm 23:52 Cloudy with Rain 54 12.2 50 10 86 86 NNE 18 30 30.15 1021 4 6 0.03 0.76

Powered by AerisWeather